Tracking 19796 objects as of 19-Jul-2019
HD Live streaming from Space Station
objects crossing your sky now

FLOCK 2K 26

Track FLOCK 2K 26 now!
10-day predictions
FLOCK 2K 26 is classified as:


NORAD ID: 42883
Int'l Code: 2017-042BL
Perigee: 444.6 km
Apogee: 462.6 km
Inclination: 96.9 °
Period: 93.5 minutes
Semi major axis: 6824 km
RCS: Unknown
Launch date: July 14, 2017
Source: United States (US)
Launch site: TYURATAM MISSILE AND SPACE COMPLEX (TTMTR)
aabbcc
Your satellite tracking list
Your tracking list is empty




NASA's NSSDC Master Catalog

Two Line Element Set (TLE):
1 42883U 17042BL  19199.91745731 +.00002959 +00000-0 +76194-4 0  9991
2 42883 096.9360 081.2793 0013185 098.5706 261.7036 15.39877586112630
Source of the keplerian elements: AFSPC